Torax TimeFrame

98 Gods Updated: 2020-03-28 11:35:01
NameTime LeftWindow Opens
In TimeFrame
Animated Captain 21d 04:242020-03-07 11:57:00
Old World Drake 15d 15:402020-03-13 00:41:00
Traxodon the Plaguebringer 0d 22:382020-03-27 17:43:00
Nessam 0d 19:042020-03-27 21:17:00
Dexor, Victor of Veldara 0d 16:032020-03-28 00:18:00
Crolvak, the Fire Master 0d 12:482020-03-28 03:33:00
Smoot the Yeti 0d 12:382020-03-28 03:43:00
Sigil, Lich of Woe 0d 10:362020-03-28 05:45:00
Keeper of Nature 0d 09:012020-03-28 07:20:00
Great Lord Ganeshan 0d 08:282020-03-28 07:53:00
Wanhiroeaz the Devourer 0d 06:432020-03-28 09:38:00
Garland, The Lord Keeper 0d 06:392020-03-28 09:42:00
Sarcrina the Astral Priestess 0d 05:472020-03-28 10:34:00
Rancid, Lord of Thugs 0d 04:422020-03-28 11:39:00
Howldroid, Tormentor of the Pit 0d 02:302020-03-28 13:51:00
Lord Sibannac 0d 00:582020-03-28 15:23:00
Jazzmin, Maiden of Vitality 0d 00:442020-03-28 15:37:00
Numerocure, The Black Messenger of Evil 0d 00:242020-03-28 15:57:00
Almost In TimeFrame
Dreg nor, Keeper of the Infernal Essence 0d 00:012020-03-28 16:23:00
Straya, the Underworld Ruler 0d 00:122020-03-28 16:34:00
Not In TimeFrame
Ancient Magus Tarkin 0d 02:162020-03-28 18:38:00
Quiver, The Renegade 0d 04:142020-03-28 20:36:00
Brutalitar, Lord of the Underworld 0d 05:052020-03-28 21:27:00
Crantos, Defender of Ultimation 0d 05:312020-03-28 21:53:00
Lord Suka 0d 06:082020-03-28 22:30:00
Tsort 0d 06:162020-03-28 22:38:00
Balerion, Dragon of Dread 0d 06:342020-03-28 22:56:00
Baron Mu, Dark Rider of the Undead 0d 07:252020-03-28 23:47:00
Crane 0d 08:282020-03-29 00:50:00
Synge, The Red Dragon 0d 09:182020-03-29 01:40:00
Lord Xordam 0d 10:122020-03-29 02:34:00
Pinosis 0d 12:272020-03-29 04:49:00
The Emerald Assassin 0d 13:032020-03-29 05:25:00
Freezebreed, The Frozen Manipulator 0d 13:352020-03-29 05:57:00
Vitkros, Hydra of the Deep 0d 14:042020-03-29 06:26:00
Ebliss, Fallen Angel of Despair 0d 14:212020-03-29 06:43:00
Tylos, The Lord Master 0d 14:292020-03-29 06:51:00
Lord Varan 0d 14:472020-03-29 07:09:00
Shadow 0d 15:022020-03-29 07:24:00
Ag Nabak the Abomination 0d 16:452020-03-29 09:07:00
Threk, King of Lords 0d 17:562020-03-29 10:18:00
Melt Bane, The Forbidden Demon Dragon 0d 19:162020-03-29 11:38:00
Windstrike The Vile 0d 21:402020-03-29 14:02:00
Samatha Dark-Soul 0d 23:022020-03-29 15:24:00
Jorun the Blazing Swordsman 0d 23:362020-03-29 15:58:00
Lady Chaos, Queen of the Abyss 1d 00:032020-03-29 16:25:00
Murderface 1d 00:042020-03-29 16:26:00
Hyrak, Bringer of Nightmares 1d 01:332020-03-29 17:55:00
Xynak, the Arcane Master 1d 01:372020-03-29 17:59:00
Volgan the Living Ironbark 1d 01:492020-03-29 18:11:00
Lord Narada 1d 02:152020-03-29 18:37:00
Detox 1d 02:482020-03-29 19:10:00
Mistress of the Sword 1d 04:162020-03-29 20:38:00
Terrance, Rebel of Rallis 1d 05:042020-03-29 21:26:00
Raiyar, the Shadow Master 1d 05:382020-03-29 22:00:00
Ganja the Stone Golem 1d 06:182020-03-29 22:40:00
Ormsul the Putrid 1d 07:232020-03-29 23:45:00
Sylvanna TorLai 1d 09:112020-03-30 01:33:00
Gnorb 1d 09:532020-03-30 02:15:00
Rotborn, Eater of the Dead 1d 10:052020-03-30 02:27:00
Zikkir the Dark Archer 1d 11:132020-03-30 03:35:00
Anvilfist 1d 14:112020-03-30 06:33:00
Bolkor, the Holy Master 1d 15:332020-03-30 07:55:00
Bloodchill the Grizzly 1d 15:552020-03-30 08:17:00
Anguish 1d 18:232020-03-30 10:45:00
Skarthul the Avenged 1d 18:402020-03-30 11:02:00
Archdevil Yirkon 1d 19:082020-03-30 11:30:00
Nayark the Mummified Sorcerer 1d 20:432020-03-30 13:05:00
Q-SEC Commander 1d 22:252020-03-30 14:47:00
Lady Ariella 1d 23:332020-03-30 15:55:00
Akkel the Enflamed Warrior 2d 00:012020-03-30 16:23:00
Gorganus of the Wood 2d 00:472020-03-30 17:09:00
King Ashnar, Lord of the Unliving 2d 04:272020-03-30 20:49:00
Nar Zhul, Slayer of All 2d 08:192020-03-31 00:41:00
Karvaz, Lord of Alsayic 2d 10:462020-03-31 03:08:00
Amalgamated Apparition 2d 11:472020-03-31 04:09:00
Hackerphage, Protector of the Gateway 2d 12:552020-03-31 05:17:00
Varsanor, Master of Darkness 2d 13:502020-03-31 06:12:00
Dlanod, the Crazed Chancellor 2d 17:172020-03-31 09:39:00
Zertan, The Collector 2d 18:272020-03-31 10:49:00
Skybrine The Inescapable 2d 22:342020-03-31 14:56:00
Gregov, Knight of the Woods 3d 00:582020-03-31 17:20:00
Esquin, the Kinetic Master 3d 07:232020-03-31 23:45:00
Kretok, Descendant of Nature 3d 11:132020-04-01 03:35:00
Lacuste of the Swarm 3d 14:082020-04-01 06:30:00
Grivvek, Protector of the Brood 3d 14:342020-04-01 06:56:00
Emperor Neudeus, Controller of the Universe 3d 17:142020-04-01 09:36:00
Slashbrood, Devourer of the Blackness 3d 19:272020-04-01 11:49:00
Nafir, God of Desolation 4d 03:372020-04-01 19:59:00
Viserion, the Necrodragon 4d 13:492020-04-02 06:11:00
Kro Shuk, Doomslayer 4d 17:482020-04-02 10:10:00
Felroc, Overseer of Hellfire 4d 18:302020-04-02 10:52:00
Murfax, Beast of the Caves 4d 21:182020-04-02 13:40:00
Out of TimeFrame
Shaik, Servant of Arkron 120d 05:022019-11-29 11:19:00
Rook, Hand of Arkron 118d 03:562019-12-01 12:25:00
Jade Dragonite 18d 19:352020-03-09 20:46:00
Noxious Slug 15d 17:502020-03-12 22:31:00
Beast of Cards 15d 16:462020-03-12 23:35:00